Location: Newark
(51.5114°N, 0.0848°W)
Time: 09:11:52
(UTC+00:00)

Envisat - Visible Passes

Search period start: 16 October 2019 00:00
Search period end: 26 October 2019 00:00
Orbit: 764 x 766 km, 98.1° (Epoch: 15 October)

Date Brightness Start Highest point End Pass type
(mag) Time Alt. Az. Time Alt. Az. Time Alt. Az.
16 Oct 6.6 05:24:47 10° ENE 05:26:27 11° E 05:28:05 10° ESE visible
16 Oct 3.8 18:21:22 10° S 18:26:20 54° W 18:31:21 10° NNW visible
17 Oct 3.0 17:44:26 10° SSE 17:49:31 79° ENE 17:54:37 10° NNW visible
17 Oct 5.8 19:25:48 10° SW 19:29:09 18° W 19:32:32 10° NW visible
18 Oct 6.1 05:48:46 10° NE 05:52:21 19° E 05:55:54 10° SE visible
18 Oct 4.8 18:47:25 10° SSW 18:52:00 34° W 18:56:37 10° NNW visible
19 Oct 3.5 18:10:00 10° S 18:15:02 66° WSW 18:20:08 10° NNW visible
19 Oct 6.3 19:54:07 10° W 19:55:04 10° W 19:56:01 10° WNW visible
20 Oct 3.0 17:33:14 10° SSE 17:38:16 65° ENE 17:43:19 10° N visible
20 Oct 5.5 19:13:55 10° SW 19:17:45 21° W 19:21:37 10° NW visible
21 Oct 6.2 05:37:56 10° NE 05:40:56 15° E 05:43:54 10° ESE visible
21 Oct 4.4 18:35:53 10° SSW 18:40:39 41° W 18:45:29 10° NNW visible
22 Oct 3.1 17:58:40 10° SSE 18:03:45 80° WSW 18:08:53 10° NNW visible
22 Oct 6.1 19:41:16 10° WSW 19:43:37 13° W 19:46:00 10° WNW visible
23 Oct 5.8 06:02:36 10° NE 06:06:45 25° E 06:10:53 10° SE visible
23 Oct 3.1 17:22:06 10° SE 17:27:02 54° ENE 17:32:00 10° N visible
23 Oct 5.2 19:02:10 10° SSW 19:06:22 26° W 19:10:36 10° NW visible
24 Oct 6.4 05:27:21 10° ENE 05:29:30 12° E 05:31:37 10° ESE visible
24 Oct 4.0 18:24:24 10° S 18:29:20 50° W 18:34:18 10° NNW visible
25 Oct 3.0 17:47:24 10° SSE 17:52:29 85° ENE 17:57:37 10° NNW visible
25 Oct 5.9 19:29:04 10° SW 19:32:12 16° W 19:35:20 10° NW visible
